PSCRJ SBRJ-SDRS

Flight info

Callsign PSCRJ
Flight time N/A
Altitude 4500
Route DC T REH 2254S04311W DCT 2254S04312W DCT 2253S04313W DCT 2252S04314W DCT 2249S04319W DCT 2248S04320W DCT 2247S04321W DCT 2245S04325W DCT 2243S04336W DCT 2243S04342W N0140 A045 VFR DCT 2231S04408W DCT
Aircraft S76/L-SDFGR/S

Departure

Time 2026-05-05 23:27
Airport Santos Dumont Airport (SBRJ)

Arrival

Time N/A
Airport Resende Airport (SDRS)
Time Latitude Longitude Altitude Speed Heading
2026-05-05 23:12 -22.90531 -43.16641 15 ft 0 kts 175°
2026-05-05 23:24 -22.90533 -43.16641 15 ft 2 kts 167°
2026-05-05 23:24 -22.90537 -43.16579 15 ft 11 kts 58°
2026-05-05 23:24 -22.90499 -43.16517 15 ft 9 kts 68°
2026-05-05 23:25 -22.90494 -43.16453 15 ft 9 kts 87°
2026-05-05 23:25 -22.90492 -43.16412 15 ft 1 kts 87°
2026-05-05 23:25 -22.90491 -43.16394 15 ft 3 kts 98°
2026-05-05 23:25 -22.90527 -43.16364 15 ft 10 kts 199°
2026-05-05 23:26 -22.90585 -43.16385 15 ft 11 kts 203°
2026-05-05 23:26 -22.90605 -43.16390 23 ft 5 kts 184°
2026-05-05 23:26 -22.90701 -43.16380 172 ft 28 kts 176°
2026-05-05 23:26 -22.91005 -43.16346 461 ft 54 kts 172°
2026-05-05 23:27 -22.91507 -43.16292 800 ft 77 kts 171°
2026-05-05 23:27 -22.91590 -43.16282 888 ft 75 kts 171°
2026-05-05 23:27 -22.91852 -43.16245 1146 ft 87 kts 169°
2026-05-05 23:27 -22.92652 -43.16293 1268 ft 134 kts 203°
2026-05-05 23:28 -22.92845 -43.17137 733 ft 141 kts 326°
2026-05-05 23:28 -22.91960 -43.17600 753 ft 131 kts 326°
2026-05-05 23:28 -22.91438 -43.18432 967 ft 145 kts 283°
2026-05-05 23:28 -22.91619 -43.19506 925 ft 148 kts 237°
2026-05-05 23:29 -22.92360 -43.20212 1066 ft 130 kts 236°
2026-05-05 23:29 -22.91917 -43.20530 936 ft 128 kts 34°
2026-05-05 23:29 -22.91199 -43.20153 963 ft 84 kts 330°
2026-05-05 23:29 -22.91000 -43.20667 771 ft 78 kts 265°
2026-05-05 23:30 -22.91140 -43.21280 1046 ft 125 kts 322°
2026-05-05 23:30 -22.90397 -43.21963 1005 ft 150 kts 317°
2026-05-05 23:30 -22.89568 -43.22680 901 ft 154 kts 320°
2026-05-05 23:30 -22.88721 -43.23392 796 ft 155 kts 323°
2026-05-05 23:31 -22.87740 -43.23727 747 ft 145 kts 358°
2026-05-05 23:31 -22.86700 -43.23631 782 ft 151 kts
2026-05-05 23:31 -22.85730 -43.23936 781 ft 147 kts 321°
2026-05-05 23:31 -22.85270 -43.24906 796 ft 148 kts 276°
2026-05-05 23:32 -22.85553 -43.25961 798 ft 149 kts 233°
2026-05-05 23:32 -22.86211 -43.26590 815 ft 152 kts 214°